This is the latest recevied weather packets stored in our database for station/object KD4WXI. If no packets are shown the sender has not sent any weather packets the latest 10 day(s).
| Time | Temp. | Humidity | Pressure | Rain* | Wind** | Luminosity | Snow |
|---|---|---|---|---|---|---|---|
| 1777725560 | 11.67° C | 72% | 1014.2 hPa | 0 mm | - | 28 W/m² | - |
| 1777725256 | 11.67° C | 72% | 1014 hPa | 0 mm | - | 28 W/m² | - |
| 1777724954 | 12.22° C | 71% | 1014.2 hPa | 0 mm | - | 24 W/m² | - |
| 1777724650 | 11.67° C | 71% | 1014 hPa | 0 mm | - | 22 W/m² | - |
| 1777724348 | 11.67° C | 71% | 1013.7 hPa | 0 mm | - | 19 W/m² | - |
| 1777724045 | 11.67° C | 72% | 1013.4 hPa | 0 mm | - | 21 W/m² | - |
| 1777723743 | 11.67° C | 71% | 1013.6 hPa | 0 mm | - | 20 W/m² | - |
| 1777723438 | 11.67° C | 70% | 1013.7 hPa | 0 mm | - | 18 W/m² | - |
| 1777723136 | 12.22° C | 71% | 1013.8 hPa | 0 mm | - | 14 W/m² | - |
| 1777722833 | 12.22° C | 69% | 1014.5 hPa | 0 mm | - | 11 W/m² | - |
| 1777722529 | 12.22° C | 69% | 1013.9 hPa | 0 mm | - | 9 W/m² | - |
| 1777722226 | 11.67° C | 70% | 1013.9 hPa | 0 mm | - | 6 W/m² | - |
| 1777721923 | 11.67° C | 69% | 1013.8 hPa | 0 mm | - | 6 W/m² | - |
| 1777721621 | 12.22° C | 71% | 1013.8 hPa | 0 mm | - | 8 W/m² | - |
| 1777721319 | 12.22° C | 70% | 1013.9 hPa | 0 mm | - | 7 W/m² | - |
| 1777721016 | 12.22° C | 71% | 1013.6 hPa | 0 mm | - | 6 W/m² | - |
| 1777720713 | 12.22° C | 71% | 1013.5 hPa | 0 mm | - | 5 W/m² | - |
| 1777720411 | 12.22° C | 71% | 1013.3 hPa | 0 mm | - | 4 W/m² | - |
| 1777720108 | 12.22° C | 70% | 1013.3 hPa | 0 mm | - | 6 W/m² | - |
| 1777719806 | 12.22° C | 70% | 1013.4 hPa | 0 mm | - | 4 W/m² | - |
| 1777719503 | 12.22° C | 71% | 1013.4 hPa | 0 mm | - | 3 W/m² | - |
| 1777719200 | 12.22° C | 71% | 1013.3 hPa | 0 mm | - | 3 W/m² | - |
| 1777718898 | 12.22° C | 72% | 1013.4 hPa | 0 mm | - | 2 W/m² | - |
| 1777718595 | 12.22° C | 72% | 1013.4 hPa | 0 mm | - | 1 W/m² | - |
| 1777718292 | 12.22° C | 73% | 1013.5 hPa | 0 mm | - | 1 W/m² | - |
* Rain latest hour (hover to see other rain measurements)
** Current wind speed in m/s (hover to see current wind gust speed)